This is the latest recevied weather packets stored in our database for station/object K1RFS. If no packets are shown the sender has not sent any weather packets the latest 10 day(s).
| Time | Temp. | Humidity | Pressure | Rain* | Wind** | Luminosity | Snow |
|---|---|---|---|---|---|---|---|
| 1788067394 | 16.11° C | 77% | 1001.4 hPa | 0 mm | - | 0 W/m² | - |
| 1788067089 | 16.11° C | 76% | 1001.7 hPa | 0 mm | - | 0 W/m² | - |
| 1788066785 | 16.11° C | 76% | 1001.3 hPa | 0 mm | - | 0 W/m² | - |
| 1788066483 | 16.11° C | 76% | 1001.7 hPa | 0 mm | - | 0 W/m² | - |
| 1788066179 | 15.56° C | 76% | 1002 hPa | 3.56 mm | - | 0 W/m² | - |
| 1788065876 | 16.11° C | 77% | 1003.1 hPa | 6.6 mm | - | 0 W/m² | - |
| 1788065572 | 16.67° C | 72% | 1003.4 hPa | 4.32 mm | - | 0 W/m² | - |
| 1788065271 | 17.78° C | 67% | 1004 hPa | 3.05 mm | - | 0 W/m² | - |
| 1788064967 | 18.33° C | 61% | 1003.3 hPa | 1.78 mm | - | 0 W/m² | - |
| 1788064662 | 18.89° C | 59% | 1002.9 hPa | 0 mm | - | 0 W/m² | - |
| 1788064361 | 19.44° C | 57% | 1002.6 hPa | 1.27 mm | - | 0 W/m² | - |
| 1788064059 | 17.78° C | 61% | 1002.8 hPa | 1.27 mm | - | 0 W/m² | - |
| 1788063754 | 17.78° C | 69% | 1002.8 hPa | 0 mm | - | 0 W/m² | - |
| 1788063452 | 17.78° C | 70% | 1002.6 hPa | 0 mm | - | 0 W/m² | - |
| 1788063147 | 17.78° C | 68% | 1002.5 hPa | 0 mm | - | 0 W/m² | - |
| 1788062843 | 17.78° C | 69% | 1002.3 hPa | 0 mm | - | 0 W/m² | - |
| 1788062539 | 17.78° C | 70% | 1002.3 hPa | 0 mm | - | 0 W/m² | - |
| 1788062237 | 17.78° C | 70% | 1002.3 hPa | 0 mm | - | 0 W/m² | - |
| 1788061932 | 18.33° C | 69% | 1002.6 hPa | 0 mm | - | 0 W/m² | - |
| 1788061627 | 18.89° C | 67% | 1002.6 hPa | 0 mm | - | 0 W/m² | - |
| 1788061327 | 18.89° C | 62% | 1002.6 hPa | 0 mm | - | 0 W/m² | - |
| 1788061023 | 18.89° C | 63% | 1001.8 hPa | 0 mm | - | 0 W/m² | - |
| 1788060723 | 18.89° C | 60% | 1002 hPa | 0 mm | - | 0 W/m² | - |
| 1788060423 | 18.89° C | 62% | 1002.2 hPa | 0 mm | - | 0 W/m² | - |
| 1788060118 | 18.33° C | 63% | 1001.6 hPa | 0 mm | - | 0 W/m² | - |
* Rain latest hour (hover to see other rain measurements)
** Current wind speed in m/s (hover to see current wind gust speed)